Other Public Products
Issued by NWS Grand Forks, ND

Home | Current Version | Previous Version | Graphics & Text | Print | Product List | Glossary On
Versions: 1 2 3 4 5 6 7 8 9 10 11 12 13 14 15 16 17 18 19 20 21 22 23 24 25 26 27 28 29 30 31 32 33 34 35 36 37 38 39 40 41 42 43 44 45 46 47 48 49 50
000
FPUS83 KFGF 250431
OPUFGF
PRAIRIE TO PINES WEATHER ROUNDUP
NATIONAL WEATHER SERVICE EASTERN NORTH DAKOTA/GRAND FORKS ND
1100 PM CDT SAT SEP 24 2016

 **SATELLITE DATA USED TO AUGMENT SKY COVER AT AUTOMATED STATIONS**
 *****  WEATHER ACROSS EASTERN NORTH DAKOTA  *****

CITY           SKY/WX    TMP DP  RH WIND       PRES   REMARKS
GRAND FORKS    CLOUDY    68  65  90 S13       29.73F
GRAND FORKS AF CLOUDY    68  66  94 S14       29.72F
GRAND CITY NWS NOT AVBL
BUXTON           N/A     72  71  99 S13         N/A
DEVILS LAKE    CLEAR     66  62  87 S8        29.72F
FARGO          CLOUDY    70  67  90 S16G23    29.79S
WAHPETON ARPT  PTCLDY    64  63  94 S14       29.83S
$$

 *****  WEATHER ACROSS CENTRAL AND WESTERN NORTH DAKOTA  *****

CITY           SKY/WX    TMP DP  RH WIND       PRES   REMARKS
JAMESTOWN      CLEAR     58  51  78 S7        29.74F
BISMARCK       CLOUDY    58  51  78 S12       29.75F
MINOT          CLOUDY    58  55  90 NW15      29.75R
MINOT AFB      CLOUDY    57  54  88 NW18      29.74S
GARRISON         N/A     54  53  97 N9        29.73S
WILLISTON      LGT RAIN  52  47  83 N25G36    29.89R
DICKINSON      LGT RAIN  51  49  92 NW28G36   29.80R FOG
HETTINGER      CLOUDY    53  49  86 NW23G32   29.82R
$$

 *****  OTHER OBSERVATIONS NORTHEAST NORTH DAKOTA  *****

CITY           SKY/WX    TMP DP  RH WIND       PRES   REMARKS
WALHALLA       FAIR      66  66 100 S9        29.71F
LANGDON        MOCLDY    66  64  94 S16       29.72F
CAVALIER       CLOUDY    66  66 100 S9        29.71F FOG
GRAFTON        CLOUDY    66  66 100 SE14G20   29.74F
CANDO          FAIR      61  61 100 S6        29.72F
FORT TOTTEN    NOT AVBL
ROLLA          FAIR      63  63 100 SW9       29.72S
RUGBY          FAIR      57  55  94 W6        29.71S
 ***** THE ABOVE OBSERVATIONS ARE NON NWS ARE NOT QUALITY
        CONTROLLED AND MAY MIS-REPORT RAIN FOR SNOW...
$$

 *****  OTHER OBSERVATIONS SOUTHEAST NORTH DAKOTA *****

CITY           SKY/WX    TMP DP  RH WIND       PRES   REMARKS
COOPERSTOWN    FAIR      66  64  94 S12       29.75S
VALLEY CITY    FAIR      63  57  82 S12       29.78S
OAKES          NOT AVBL
GWINNER        FAIR      64  63  94 SE8       29.81S
BUFFALO          N/A     66  63  90 S10         N/A
WYNDMERE         N/A     70  66  88 S9          N/A
 ***** THE ABOVE OBSERVATIONS ARE NON NWS ARE NOT QUALITY
       CONTROLLED AND MAY MIS-REPORT RAIN FOR SNOW...
$$

  *****  WEATHER ACROSS NORTHERN MINNESOTA  *****

CITY           SKY/WX    TMP DP  RH WIND       PRES   REMARKS
FLAG ISLAND    LGT RAIN  63  61  94 SE7       29.84F
WARROAD        CLOUDY    64  61  88 SE16G22   29.85F
ROSEAU         MOCLDY    64  61  88 SE15G22   29.81F
HALLOCK        CLOUDY    68  64  88 SE16      29.74S
THF RVR FALLS  CLOUDY    65  63  93 SE16      29.81R
HALSTAD          N/A     69  66  92 S17         N/A
FOSSTON        CLOUDY    64  63  94 SE10G16   29.82S
BAUDETTE       CLOUDY    63  61  93 SE14      29.87F
WASKISH        CLOUDY    64  61  88 SE13G20   29.88F
CROOKSTON      CLOUDY    64  64 100 S18G25    29.77F
$$
  *****  WEATHER ACROSS CENTRAL AND WEST MINNESOTA  *****

CITY           SKY/WX    TMP DP  RH WIND       PRES   REMARKS
BEMIDJI        CLOUDY    64  62  91 SE12G18   29.88R
PARK RAPIDS    CLOUDY    66  62  87 SE17      29.89R
WADENA         LGT RAIN  64  63  94 SE12      29.88F
DETROIT LAKES  CLOUDY    66  63  88 S10       29.87R
MOORHEAD       CLOUDY    68  66  94 S16G23    29.81R
FERGUS FALLS   CLOUDY    66  66 100 S13       29.87S
ELBOW LAKE     CLOUDY    66  65  97 SE12      29.87S
MORRIS MN      HVY RAIN  68  66  94 S15G22    29.87S
STAPLES        RAIN      64  63  94 SE12G17   29.91S
WHEATON        MOCLDY    68  66  94 S12       29.86F
$$
  *****  WEATHER ELSEWHERE ACROSS MINNESOTA  *****

CITY           SKY/WX    TMP DP  RH WIND       PRES   REMARKS
DULUTH         CLOUDY    62  59  90 SE12      30.01F
INTRNTL FALLS  CLOUDY    62  58  86 SE12G18   29.94F
ELY            PTCLDY    61  54  77 SE9       30.01F
CLOQUET        CLOUDY    61  57  88 E8        30.00F
BRAINERD       LGT RAIN  64  63  96 SE10G24   29.94S FOG
HIBBING        CLOUDY    61  59  93 SE13      29.99F
ALEXANDRIA     CLOUDY    67  67 100 SE14      29.91F
SAINT CLOUD    CLOUDY    66  65  96 SE15G24   29.95S
MINNEAPOLIS    CLOUDY    68  63  84 SE18      29.97F
$$

  *****  WEATHER ACROSS SOUTH DAKOTA  *****

CITY           SKY/WX    TMP DP  RH WIND       PRES   REMARKS
SIOUX FALLS    CLOUDY    71  68  90 SW8       29.91S
BROOKINGS      CLOUDY    68  66  94 SW9         N/A
WATERTOWN      PTCLDY    66  65  96 S12       29.87S
HURON          CLEAR     61  48  62 W8        29.88R
SISSETON         N/A     67  66  97 S12       29.83S
ABERDEEN       CLEAR     62  46  55 SW12      29.84R
MITCHELL       PTCLDY    65  52  62 W12       29.91R
PIERRE         CLEAR     54  40  59 W10       29.92S
MOBRIDGE       CLEAR     55  44  66 S10       29.82S
RAPID CITY     CLOUDY    53  41  63 NW25G36   30.03R
$$

  *****  SOME WEATHER IN NEARBY STATES *****

CITY           SKY/WX    TMP DP  RH WIND       PRES   REMARKS
GLASGOW MT     CLOUDY    53  47  79 W14       30.09R
GREAT FALLS MT CLEAR     43  38  82 SE6       30.29R
CHEYENNE WY    CLEAR     45  36  70 NW15G23   30.28R
SCOTTSBLUFF NE CLEAR     48  41  76 NW7       30.21R
OMAHA NE       CLOUDY    71  67  87 S8        29.98R
DES MOINES IA  TSTM      69  67  93 SE9       30.01F FOG
DAVENPORT IA   CLEAR     70  66  87 E7        30.07R
CHICAGO IL     CLEAR     69  64  84 E8        30.13S
EAU CLAIRE WI  CLOUDY    64  59  83 SE9       30.06F
LA CROSSE WI   PTCLDY    66  63  90 E6        30.07R
$$

  *****  SOME NATIONAL WEATHER *****

CITY           SKY/WX    TMP DP  RH WIND       PRES   REMARKS
LA GUARDIA NY  CLEAR     64  43  46 NE5       30.14S
RALEIGH NC     PTCLDY    72  69  90 CALM      30.05S
ATLANTA GA     PTCLDY    78  66  66 CALM      30.06S
NEW ORLEANS LA CLEAR     80  74  81 S3        30.00S
OKLAHOMA CITY  CLOUDY    71  68  90 SW12G21   29.99R THUNDER
ALBUQUERQUE NM CLEAR     61  32  33 N10       30.18R
SALT LAKE CITY CLEAR     53  45  74 S7        30.34S
LOS ANGELES CA CLEAR     72  51  47 CALM      29.96R
BOISE ID       CLEAR     56  35  45 CALM      30.33R
SEATTLE WA     CLOUDY    62  47  57 CALM      30.36R
$$

*** WEATHER ACROSS MANITOBA...SASKATCHEWAN AND ONTARIO ***
                ***ONTARIO***

CITY           SKY/WX    TMP DP  RH WIND       PRES   REMARKS
GERALDTON      MOCLDY    54  48  82 S3        30.20F
THUNDER BAY    PTCLDY    57  55  94 E6        30.12F
SIOUX LOOKOUT  CLOUDY    59  52  77 S9        29.98F
TORONTO        CLEAR     52  41  66 N6        30.25R
BIG TROUT LK   CLEAR     54  43  66 SE10G17   30.07S
PICKLE LAKE    NOT AVBL
DRYDEN         CLOUDY    61  57  88 S13       29.95F
KENORA         LGT RAIN  63  59  88 S14G20    29.90F
$$
                *** MANITOBA***

CITY           SKY/WX    TMP DP  RH WIND       PRES   REMARKS
BRANDON        MOCLDY    64  63  94 W10       29.68R
DAUPHIN        CLOUDY    55  54  94 N12       29.72F
ISLAND LAKE    CLOUDY    57  52  82 SE16G24   29.87F
PILOT MOUND      N/A     66  64  94 S14         N/A
THE PAS        LGT RAIN  52  50  93 W8        29.82R VSB 1
THOMPSON       LGT RAIN  50  48  93 VRB3      29.81F
WINNIPEG       LGT RAIN  66  63  88 S14       29.72F
LYNN LAKE      CLOUDY    46  46 100 S3        29.80F
CHURCHILL      LGT RAIN  52  41  66 SE15      29.99F
GILLAM         LGT RAIN  52  46  82 E7        29.91S
$$
                ***SASKATCHEWAN***

CITY           SKY/WX    TMP DP  RH WIND       PRES   REMARKS
ESTEVAN        NOT AVBL
KINDERSLEY     NOT AVBL
LLOYDMINSTER   CLEAR     39  34  81 W10       30.09R
PRINCE ALBERT  MOCLDY    50  45  81 NW9       29.94S
REGINA         CLOUDY    50  48  93 NW17G23   29.97R
YORKTON        CLOUDY    52  48  87 NW15G23   29.84F
N. BATTLEFORD  CLEAR     46  37  71 NW9       30.06R  C1F1C2F2C3F3C4F4C5F5C6F6C7F7C8F8C9F9CaFaCbFbCcFcCdFdCe!


USA.gov is the U.S. government's official web portal to all federal, state and local government web resources and services.